Fort Wayne Police Department
Fort Wayne Police Department
Emergencies Call: 911
Non-Emergencies: (260) 427-1222
report drug house

Daily Activity Logs

Activity Log for June 27, 2014 Community Search

Incident Time Nature Address
14F082824 00:01:21 102,TX THREATS 00 MAIN ST E
14F082825 00:04:20 22RC RECOVERY 1000 BUCHANAN ST
14F082826 00:10:25 26 PI ACCIDENT 3300 COLISEUM BLVD W
14F082827 00:10:47 22RN RUNAWAY 5400 FAIRFIELD AVE
14F082828 00:11:08 44LM 2100 BROWN ST
14F082829 00:13:31 34 TRAFF HAZARD 400 CREIGHTON AVE E & WARSAW ST
14F082830 00:17:41 EMS 2300 REHM DR
14F082833 00:20:20 44LM 4900 WINTER ST & ELMROW DR
14F082831 00:20:40 44 NUISANCE 3300 FAIRFIELD AVE
14F082832 00:21:11 911 HANG UP 900 ELIZA ST
14F082842 00:22:46 48 SUSPICIOUS 5500 LE STEELE BLVD
14F082834 00:23:49 48,36 4700 HEATHERWIND DR
14F082835 00:26:10 103 UNWANTED 4000 HANNA ST S
14F082839 00:31:23 48,35 400 RUDISILL BLVD E
14F082837 00:32:52 22RN RUNAWAY 2500 WINCH ST
14F082836 00:33:13 30 TRAFFIC STOP 6300 COVINGTON RD
14F082840 00:35:53 48,35 1300 FRANKLIN AVE
14F082838 00:39:36 1 MEET 900 CALHOUN ST S
14F082843 00:44:18 48 SUSPICIOUS 900 LIBERTY ST
14F082844 00:52:16 40A AUDIBLE 500 BERRY ST W
14F082845 00:53:53 43 DISTURBANCE 6000 BUNT DR
14F082846 01:05:57 43 DISTURBANCE 1300 PARK AVE & THOMPSON AVE
14F082848 01:12:18 40A AUDIBLE 200 MAIN ST E
14F082847 01:12:37 46 DOMESTIC 1300 FAY DR
14F082849 01:16:34 102 THREATS 5200 STONEHEDGE BLVD
14F082851 01:19:55 EMS 7000 ELZEY ST
14F082850 01:21:32 911 HANG UP 1000 CALHOUN ST S
14F082852 01:28:28 50,ATTEMPTED 2900 CHARLOTTE AVE
14F082853 01:35:40 63 CONTACT 7500 BOJRAB DR
14F082855 01:44:09 46 DOMESTIC 800 THIRD ST
14F082854 01:45:59 66V MENTAL VIOL 600 BERRY ST E & HANNA ST S
14F082856 01:46:12 46 DOMESTIC 2100 MCKEE ST
14F082858 02:09:18 25 PD ACCIDENT 11400 BASS RD & EME RD
14F082857 02:09:22 129 4300 ANTHONY BLVD S
14F082859 02:35:31 16V PICKUP VID 00 MAIN ST E
14F082860 02:40:21 30 TRAFFIC STOP 1500 CREIGHTON AVE E & WALLACE ST
14F082861 02:43:55 911 HANG UP 7900 DECATUR RD
14F082862 02:52:58 48 SUSPICIOUS 500 MAPLE GROVE AVE E
14F082863 02:53:59 55 FIGHT 1700 WAYNE ST E
14F082864 02:59:16 22I JUV INVEST 11000 WINDSOR WOODS BLVD
14F082865 03:01:05 65T SUICIDE THR 700 VILLA PARK CT
14F082866 03:10:32 911 HANG UP 2800 MCCORMICK AVE
14F082867 03:13:52 50IP BURG I/P 3300 PLAZA DR
14F082868 03:23:37 40A AUDIBLE 1300 OXFORD ST
14F082869 03:29:55 40A AUDIBLE 2300 CASS ST
14F082870 03:35:38 25HS HIT SKIP 1200 STATE BLVD E
14F082871 03:42:25 48 SUSPICIOUS 5000 LIMA RD & PROGRESS RD
14F082872 03:44:37 30 TRAFFIC STOP 3900 BOWSER AVE
14F082874 03:48:01 43 DISTURBANCE 700 DEWALD ST W
14F082873 03:50:16 48 SUSPICIOUS 5400 LIMA RD & I 69 NB
14F082875 03:55:46 40A AUDIBLE 5800 CROSS CREEK BLVD
14F082876 04:07:26 103 UNWANTED 1000 CALHOUN ST S
14F082877 04:11:50 34 TRAFF HAZARD 31600 I 69 NB
14F082878 04:13:57 40A AUDIBLE 2500 CHURCH ST
14F082879 04:23:58 48 SUSPICIOUS 1800 BROWN ST
14F082880 04:25:39 41 MAN DOWN 3000 BROADWAY
14F082881 04:31:57 35 PARKED VEHIC 8400 LIONSGATE RUN
14F082882 04:41:27 48,36 700 STATE BLVD E
14F082883 04:51:10 103 UNWANTED 8400 BREMEN WAY
14F082885 04:54:50 911 HANG UP 5600 HIGHVIEW DR
14F082884 05:00:25 30 TRAFFIC STOP 300 STATE BLVD W & WELLS ST
14F082886 05:01:57 43 DISTURBANCE 3800 FOREST HILL AVE
14F082887 05:13:00 48 SUSPICIOUS 100 BUTLER ST W
14F082888 05:19:42 25 PD ACCIDENT 7300 MAPLECREST RD & ROTHMAN RD
14F082889 05:22:39 30 TRAFFIC STOP 6200 CLINTON ST N & BETHANY LN
14F082890 05:26:11 40A AUDIBLE 800 AIRPORT NORTH OFFICE PARK
14F082892 05:56:49 16,97 400 OAKDALE DR W & HOAGLAND AVE
14F082891 06:03:02 66 MENTALLY ILL 6300 STELLHORN RD
14F082893 06:23:57 30 TRAFFIC STOP 3600 BLUFFTON RD & BROOKLYN AVE
14F082894 06:24:49 26 PI ACCIDENT 2700 WASHINGTON CENTER RD W & INNO
14F082895 06:26:06 27 RECKLESS DRI 31700 I 69 SB
14F082896 06:36:28 51,35 300 OAKDALE DR W
14F082897 06:50:43 33,34 2600 LAFAYETTE ST S & PONTIAC ST E
14F082898 06:59:02 108 FOLLOWUP 600 FLORENCE AVE
14F082899 07:05:42 40A AUDIBLE 7800 TANBARK LN
14F082900 07:32:05 63 CONTACT 3300 CHERRY LN
14F082901 07:41:36 63 CONTACT 30800 I 69 SB
14F082902 07:44:45 51,35 3600 HARRISON ST S
14F082903 07:52:32 25 PD ACCIDENT 3100 COLISEUM BLVD E & HOBSON RD
14F082904 07:53:41 911 HANG UP 1800 LAVERNE AVE
14F082905 08:01:18 99 NARCOTICS 200 CLINTON ST S
14F082906 08:05:25 40A AUDIBLE 1400 DUPONT RD W
14F082907 08:08:41 911 HANG UP 2200 EBY AVE
14F082908 08:10:05 47 REMOVE ITEMS 100 WASHINGTON CENTER RD W
14F082910 08:23:33 50,ATTEMPTED 900 ILLSLEY DR
14F082909 08:24:10 102 THREATS 6500 STATE BLVD E
14F082912 08:31:03 66 MENTALLY ILL 800 TENNESSEE AVE
14F082911 08:32:51 63 CONTACT 1900 HARRISON ST S
14F082913 08:34:02 35 PARKED VEHIC 5800 ST JOE RD & ST JOE CENTER RD
14F082915 08:34:51 63 CONTACT 1600 DUPONT RD W
14F082917 08:37:07 46,96 2200 CHARLOTTE AVE
14F082931 08:41:58 39 STOLEN VEHIC 3200 WASHINGTON BLVD E
14F082919 08:44:38 16V PICKUP VID 00 MAIN ST E
14F082920 08:44:39 129 5300 PORTA TRL
14F082921 08:46:04 911 HANG UP 1700 CLOVER LN
14F082922 08:49:29 40A AUDIBLE 4400 STATE BLVD E
14F082923 08:56:29 30 TRAFFIC STOP 3200 JEFFERSON BLVD W & FREEMAN ST
14F082927 08:59:17 25 PD ACCIDENT 1000 BROADWAY & JEFFERSON BLVD W
14F082926 09:00:56 51 THEFT 900 PAULDING RD E
14F082929 09:06:35 30 TRAFFIC STOP 500 COLISEUM BLVD E
14F082933 09:11:13 15 ASSIST 800 BUCHANAN ST
14F082934 09:18:32 51 THEFT 900 BUCHANAN ST
14F082935 09:21:27 911 HANG UP 1200 WASHINGTON CENTER RD E
14F082937 09:26:30 40I INTRUSION 1400 DUPONT RD W
14F082936 09:26:59 108 FOLLOWUP 2600 INDIANA AVE
14F082938 09:43:39 51 THEFT 3400 BROOKLYN AVE
14F082939 09:44:24 34 TRAFF HAZARD 4300 LIMA RD & COLISEUM BLVD W
14F082946 09:52:59 63 CONTACT 3400 BEAVER AVE
14F082941 09:53:35 103 UNWANTED 3000 BROADWAY
14F082942 09:55:17 911 HANG UP 6300 GEORGETOWN LN
14F082943 09:59:53 25 PD ACCIDENT 4800 EXECUTIVE BLVD & PROGRESS RD
14F082945 10:00:38 48 SUSPICIOUS 10100 WINDING CREEK LN
14F082944 10:00:46 103 UNWANTED 6900 RAMBLEWOOD DR
14F082947 10:02:47 48 SUSPICIOUS 4100 HILLEGAS RD & COLISEUM BLVD W
14F082948 10:05:10 37 PARKING VIOL 1200 LUMBARD ST
14F082951 10:07:46 23 VANDALISM 300 KILLEA ST
14F082949 10:08:18 25 PD ACCIDENT 2900 GOSHEN RD & COLISEUM BLVD W
14F082950 10:12:05 30 TRAFFIC STOP 2400 JEFFERSON BLVD W
14F082952 10:16:07 41 MAN DOWN 400 MADISON ST
14F082953 10:16:44 17 MOTOR CHECK 2900 TAYLOR ST
14F082958 10:17:38 14S SERVING WAR 3100 WINTER ST
14F082954 10:22:43 22I JUV INVEST 7400 KERN VALLEY DR
14F082957 10:22:54 66 MENTALLY ILL 700 CALHOUN ST S
14F082955 10:23:51 911 HANG UP 2600 LAKE AVE
14F082959 10:24:07 27 RECKLESS DRI 200 RUDISILL BLVD E & CLINTON ST S
14F082956 10:24:30 911 HANG UP 4500 LAHMEYER RD
14F082960 10:35:50 30 TRAFFIC STOP 1200 GETZ RD & ILLINOIS RD
14F082963 10:39:19 45 NEIGHBORHOOD 300 PAULDING RD E
14F082962 10:40:12 51,35 900 FERGUSON AVE
14F082965 10:41:35 911 HANG UP 2300 FAIRFIELD AVE
14F082964 10:42:53 17 MOTOR CHECK 6300 CHATHAM DR
14F082966 10:46:20 48,36 7500 MAPLECREST RD
14F082967 10:50:20 48 SUSPICIOUS 5800 HUGUENARD RD & WASHINGTON CEN
14F082968 10:52:27 65T SUICIDE THR 3900 BUELL DR
14F082971 10:54:15 39U UNAUTHORIZE 7200 HICKORY CREEK DR
14F082969 10:54:32 43 DISTURBANCE 3800 CALHOUN ST S & RUDISILL BLVD
14F082978 10:54:55 11C CAGE CAR 00 MAIN ST E
14F082972 10:55:27 911 HANG UP 5200 LILLIE ST
14F082970 10:57:37 38 LOST/STOLEN 4100 JEFFERSON BLVD W
14F082973 11:00:07 66 MENTALLY ILL 5100 HILLEGAS RD
14F082974 11:03:27 37 PARKING VIOL 500 MILDRED AVE
14F082975 11:04:09 41 MAN DOWN 3000 BROADWAY & WILDWOOD AVE W
14F082976 11:05:11 911 HANG UP 200 ESMOND ST
14F082985 11:09:16 22RN RUNAWAY 4100 REED ST
14F082977 11:14:29 46 DOMESTIC 1000 ECKART ST
14F082979 11:23:58 911 HANG UP 5100 STANDISH DR
14F082981 11:24:39 25HS HIT SKIP 5100 MEIJER DR & MAYSVILLE RD
14F082980 11:26:51 129 600 LOWER HUNTINGTON RD
14F082982 11:27:35 51 THEFT 2000 PAULINE ST
14F082983 11:30:13 25 PD ACCIDENT 2200 KENTUCKY AVE & STATE BLVD E
14F082984 11:34:29 53 ARMED ROB 300 MASTERSON AVE E
14F082987 11:39:57 50 BURGLARY 3900 SADDLE DR E
14F082986 11:41:58 39R STOLEN RECO 200 MARCIEL DR
14F082989 11:43:34 25HS HIT SKIP 5800 LIMA RD & WASHINGTON CENTER R
14F082990 11:43:51 40P PANIC ALARM 5400 COLDWATER RD
14F082988 11:44:23 37 PARKING VIOL 3600 TURF LN
14F082991 11:45:38 99 NARCOTICS 500 MAIN ST W
14F082992 11:46:38 16,97 2000 SPRING ST
14F082994 11:52:59 1 MEET 1000 EDGEWATER AVE
14F082993 11:53:38 40A AUDIBLE 3600 FOCUS DR
14F082995 11:57:19 103 UNWANTED 2400 FAIRFIELD AVE
14F082996 12:00:27 40A AUDIBLE 1100 MONROE ST S
14F082999 12:00:31 63 CONTACT 200 OAKDALE DR W
14F082998 12:01:51 34 TRAFF HAZARD 500 BOLTZ ST & MONROE ST S
14F082997 12:03:50 26 PI ACCIDENT 700 COLISEUM BLVD W
14F083005 12:05:16 17 MOTOR CHECK 00 MAIN ST E
14F083000 12:07:23 911 HANG UP 400 WASHINGTON BLVD W
14F083015 12:08:15 96 BATTERY 4400 SPATZ AVE
14F083001 12:09:36 15 ASSIST 2400 MANFORD ST & RADCLIFFE DR
14F083002 12:11:33 41 MAN DOWN 1300 HOME AVE & THOMPSON AVE
14F083016 12:16:22 63 CONTACT 1700 OXFORD ST
14F083003 12:17:58 51 THEFT 6700 KANATA CT
14F083004 12:18:15 911 HANG UP 5600 OLD DOVER BLVD
14F083006 12:19:27 911 HANG UP 4500 REED ST
14F083007 12:20:57 911 HANG UP 1100 WALLACE ST E
14F083009 12:24:19 911 HANG UP 1400 LAKE AVE
14F083008 12:25:17 30 TRAFFIC STOP 600 MAIN ST W & BROADWAY
14F083011 12:26:12 46,96 3000 CALHOUN ST S & WILDWOOD AVE E
14F083012 12:30:21 25 PD ACCIDENT 300 COLISEUM BLVD E & COLDWATER RD
14F083013 12:32:02 23,35 VAND VEH 4000 BARR ST S
14F083014 12:32:16 25 PD ACCIDENT 6200 STATE BLVD E & MAPLECREST RD
14F083017 12:40:09 1 MEET 4500 REED ST
14F083018 12:41:56 25 PD ACCIDENT 5200 LAKE AVE
14F083019 12:49:28 40A AUDIBLE 500 WASHINGTON BLVD E
14F083020 12:50:25 EMS 8800 BREAKWATER DR
14F083031 12:51:13 46,96 2800 BROADWAY
14F083021 12:57:09 911 HANG UP 7100 CHADWICK DR
14F083024 13:01:11 25HS HIT SKIP 100 WOODLAND AVE W & HARRISON ST S
14F083022 13:01:31 27 RECKLESS DRI 7400 ANTHONY BLVD S & TILLMAN RD E
14F083023 13:01:39 63 CONTACT 5700 LIMA RD & I 69 311 SB ON RAMP
14F083027 13:04:52 15 ASSIST 2600 DODGE AVE
14F083025 13:05:38 43 DISTURBANCE 6400 ST JOE RD
14F083026 13:09:38 23,35 VAND VEH 2700 STATE BLVD E & BEACON ST
14F083028 13:10:47 40A AUDIBLE 2700 ALMA AVE
14F083029 13:13:09 911 HANG UP 7200 PINE LAKE RD
14F083060 13:13:32 50 BURGLARY 5000 MCCLELLAN ST
14F083030 13:15:48 65T SUICIDE THR 3100 STARDALE DR
14F083032 13:17:23 911 HANG UP 1000 ST MARYS AVE
14F083047 13:20:10 50 BURGLARY 6200 ST JOE RD
14F083034 13:20:34 25,86 900 TIMBERLAKE TRL
14F083033 13:20:52 129 5200 MILLWRIGHT PL
14F083037 13:21:34 63 CONTACT 1900 INVERNESS LAKES XING
14F083062 13:22:29 51 THEFT 3300 ACADEMIC PL
14F083035 13:25:54 30 TRAFFIC STOP 3400 CRESCENT AVE & ST JOE RIVER D
14F083036 13:27:23 911 HANG UP 2000 BROOKLYN AVE
14F083044 13:35:11 108 FOLLOWUP 00 MAIN ST E
14F083038 13:36:41 23,35 VAND VEH 4000 CLINTON ST S
14F083039 13:40:03 14 WARRANT 200 MAIN ST E
14F083040 13:40:26 33,34 31600 I 69 NB
14F083041 13:41:55 911 HANG UP 7900 COLDWATER RD
14F083043 13:42:01 48 SUSPICIOUS 2400 FAIRFIELD AVE
14F083042 13:44:09 22RC RECOVERY 4200 LIMA RD
14F083045 13:52:58 26 PI ACCIDENT 2600 GETZ RD & COVINGTON RD
14F083046 13:54:41 30 TRAFFIC STOP 3100 LOWER HUNTINGTON RD
14F083057 13:55:38 96JO 2500 OAKWOOD DR
14F083049 13:56:11 63 CONTACT 2100 ST MARYS AVE
14F083050 13:59:43 46,62 5600 SMITH ST
14F083048 13:59:46 33,34 3200 DUPONT RD E & I 69 NB
14F083055 14:00:46 22RC RECOVERY 5400 FAIRFIELD AVE
14F083051 14:01:25 129 2100 DALE DR
14F083052 14:02:02 83 INFO REPORT 3900 ICE WAY
14F083053 14:03:17 911 HANG UP 1700 ST JOE RIVER DR
14F083054 14:04:43 25HS HIT SKIP 5300 COLDWATER RD
14F083056 14:05:46 26 PI ACCIDENT 5700 ILLINOIS RD & AVENUE OF AUTOS
14F083058 14:08:04 48 SUSPICIOUS 400 JEFFERSON BLVD E & CLAY ST
14F083059 14:08:05 30 TRAFFIC STOP 2000 STATE BLVD W
14F083061 14:12:26 911 HANG UP 6700 MIDFIELD DR
14F083064 14:16:10 911 HANG UP 300 BERRY ST W
14F083063 14:16:42 65T SUICIDE THR 4000 ARLINGTON AVE
14F083066 14:18:37 48,36 300 BERRY ST W & EWING ST
14F083065 14:19:24 34 TRAFF HAZARD 1600 FAIRFIELD AVE
14F083067 14:20:16 30 TRAFFIC STOP 900 MCKINNIE AVE
14F083068 14:21:27 40I INTRUSION 1600 NORTHLAND BLVD
14F083069 14:24:53 30 TRAFFIC STOP 100 STATE BLVD E & CLINTON ST N
14F083070 14:25:14 72 FAIL TO PAY 6000 ST JOE CENTER RD
14F083071 14:26:00 25HS HIT SKIP 8700 JEFFERSON BLVD W
14F083072 14:26:21 1 MEET 1500 DUPONT RD W
14F083073 14:30:12 30 TRAFFIC STOP 3000 QUEEN ST & EVANS ST
14F083074 14:32:17 25HS HIT SKIP 4100 LIMA RD
14F083075 14:33:39 25 PD ACCIDENT 1700 ROSEMONT DR & NORTHHIGHLANDS
14F083077 14:33:47 102,TX THREATS 7000 BEATY AVE
14F083076 14:35:21 25 PD ACCIDENT 700 COLISEUM BLVD E
14F083085 14:40:23 EMS 7500 IDEAL AVE
14F083078 14:40:37 41 MAN DOWN 2500 BROADWAY
14F083081 14:45:48 103 UNWANTED 5800 SANDRA LEE AVE
14F083079 14:45:58 51IP 5700 STELLHORN RD
14F083080 14:46:39 30 TRAFFIC STOP 4300 CLINTON ST N & COLISEUM BLVD
14F083082 14:50:01 63Z ZACH CHECK 3600 NEW HAVEN AVE
14F083083 14:50:28 30 TRAFFIC STOP 3600 ANTHONY BLVD S & GRIER ST
14F083084 14:50:58 30 TRAFFIC STOP 500 SUPERIOR ST W & FAIRFIELD AVE
14F083086 14:54:59 129 600 LEWIS ST E & HANNA ST S
14F083087 14:56:25 16V PICKUP VID 00 MAIN ST E
14F083088 15:01:58 129 4200 HESSEN CASSEL RD & SENATE AVE
14F083089 15:05:11 48 SUSPICIOUS 1500 GRIER ST & WINTER ST
14F083091 15:05:29 63 CONTACT 5500 COVENTRY LN
14F083090 15:06:41 33,34 5800 ST JOE RD & ST JOE CENTER RD
14F083092 15:10:06 EMS 2000 WAYSIDE DR
14F083093 15:12:22 15 ASSIST 5500 PLAZA DR
14F083096 15:17:28 102,TX THREATS 1600 RICHARDSON ST
14F083097 15:20:17 51 THEFT 4000 ABBOTT ST
14F083094 15:20:20 98 VICE INVEST 2100 HANNA ST S
14F083095 15:22:45 27 RECKLESS DRI 6200 ST JOE CENTER RD & MAPLECREST
14F083098 15:24:02 911 HANG UP 2800 WINDRUSH DR
14F083101 15:25:23 48 SUSPICIOUS 3800 COLDWATER RD
14F083100 15:25:26 43 DISTURBANCE 6300 SHELL DR
14F083099 15:26:15 30 TRAFFIC STOP 3400 SHERMAN BLVD
14F083103 15:31:32 46,96 3900 CLINTON ST N
14F083102 15:31:46 33,34 6200 INNOVATION BLVD & INNOVATION
14F083104 15:35:29 103 UNWANTED 6700 RAMBLEWOOD CT
14F083105 15:36:06 911 HANG UP 5300 PLAZA DR
14F083106 15:37:48 911 HANG UP 1600 HOWELL ST
14F083107 15:38:59 20 PROBLEM UNK 1700 WELLS ST
14F083132 15:38:59 1 MEET 2900 MEADOWS PARK WAY
14F083108 15:39:44 43 DISTURBANCE 3900 HESSEN CASSEL RD
14F083109 15:40:40 26 PI ACCIDENT 10300 COLDWATER RD & DUPONT RD E
14F083110 15:42:26 17 MOTOR CHECK 800 AVENUE OF AUTOS
14F083112 15:43:07 911 HANG UP 100 KILLEA ST
14F083113 15:43:11 34 TRAFF HAZARD 30500 I 69 SB
14F083117 15:43:27 47 REMOVE ITEMS 4800 SMITH ST
14F083114 15:48:48 47 REMOVE ITEMS 1600 REED RD
14F083119 15:49:55 16,97 500 JEFFERSON BLVD W
14F083115 15:51:13 34 TRAFF HAZARD 30500 I 69 SB
14F083116 15:56:17 30 TRAFFIC STOP 5500 SOUTHBEND DR & NORTHRIDGE RD
14F083118 15:59:42 22I JUV INVEST 1000 BUCKINGHAM DR
14F083120 16:00:24 43 DISTURBANCE 11500 KEADY RUN
14F083142 16:02:40 46 DOMESTIC 4100 LIMA RD
14F083121 16:03:36 40A AUDIBLE 700 SHERMAN BLVD
14F083122 16:03:42 43 DISTURBANCE 400 JEFFERSON BLVD W
14F083123 16:05:49 103 UNWANTED 1400 MEYER RD
14F083126 16:08:09 23,35 VAND VEH 4000 BARR ST S
14F083125 16:08:16 911 HANG UP 2500 DUPONT RD E
14F083127 16:09:01 25 PD ACCIDENT 4200 COLDWATER RD
14F083129 16:10:43 25HS HIT SKIP 4700 LAKE AVE & REED RD
14F083128 16:11:46 20 PROBLEM UNK 200 MAIN ST E
14F083130 16:17:07 30 TRAFFIC STOP 300 JEFFERSON BLVD W
14F083131 16:18:20 911 HANG UP 1400 PONTIAC ST E
14F083134 16:21:29 113 SHOTS FIRED 11200 KINGS XING
14F083133 16:21:32 40A AUDIBLE 10900 CARNOUSTIE LN
14F083141 16:22:56 911 HANG UP 1400 FISHER ST & HOLTON AVE
14F083135 16:23:24 23,35 VAND VEH 3400 GLENHURST AVE
14F083136 16:23:36 48 SUSPICIOUS 1300 GREENE ST
14F083137 16:25:12 25 PD ACCIDENT 10300 COLDWATER RD & DUPONT RD E
14F083139 16:25:40 33 DISABLED VEH 31000 I 69 SB
14F083138 16:27:27 48 SUSPICIOUS 2500 WEISSER PARK AVE
14F083140 16:27:48 46,96 2000 CHARTWELL DR
14F083154 16:32:29 108 FOLLOWUP 2400 BARNHART AVE
14F083143 16:32:45 27 RECKLESS DRI 3700 JEFFERSON BLVD W & ARDMORE AV
14F083150 16:34:59 22RN RUNAWAY 3000 EUCLID AVE
14F083144 16:36:47 911 HANG UP 4300 WARSAW ST
14F083145 16:37:25 46 DOMESTIC 2000 FRANKLIN AVE
14F083146 16:37:32 40 ALARM 2700 REED RD
14F083147 16:38:36 22I JUV INVEST 3200 CEDAR RUN
14F083149 16:45:06 48,35 3200 MCCORMICK AVE
14F083148 16:45:59 51 THEFT 6600 COVINGTON RD
14F083151 16:49:55 51 THEFT 2700 WASHINGTON CENTER RD W
14F083152 16:50:25 911 HANG UP 4800 GAYWOOD DR
14F083155 16:50:50 25HS HIT SKIP 4000 FERNBANK DR
14F083153 16:51:07 911 HANG UP 1400 OXFORD ST
14F083156 16:54:03 43 DISTURBANCE 3500 WASHINGTON CENTER RD W
14F083157 16:55:07 66 72 HOUR 900 STATE BLVD E
14F083158 16:55:45 15 ASSIST 2800 HOLTON AVE
14F083159 16:56:26 11C CAGE CAR 1100 STATE BLVD W
14F083160 16:59:55 911 HANG UP 1400 WASHINGTON CENTER RD E & CLIN
14F083162 17:03:30 25HS HIT SKIP 5800 CLINTON ST N & WASHINGTON CEN
14F083161 17:06:54 26 PI ACCIDENT 400 RUDISILL BLVD E & AVONDALE DR
14F083163 17:09:04 51 THEFT 300 PAULDING RD E
14F083165 17:10:19 46 DOMESTIC 2000 FRANKLIN AVE
14F083177 17:12:26 911 HANG UP 3100 HARRISON ST S
14F083164 17:12:48 27 RECKLESS DRI 30500 I 69 SB
14F083171 17:14:03 911 HANG UP 1200 SWINNEY AVE
14F083168 17:14:10 40A AUDIBLE 2700 COMMERCIAL RD
14F083169 17:15:10 911 HANG UP 2300 BOWSER AVE
14F083166 17:15:40 40A AUDIBLE 3100 OXFORD ST
14F083167 17:16:38 25 PD ACCIDENT 2500 BUTLER RD
14F083173 17:16:41 911 HANG UP 2800 PARNELL AVE
14F083170 17:18:36 911 HANG UP 4000 CENTRAL DR
14F083178 17:20:55 63 CONTACT 3100 DEVEREUX DR
14F083175 17:21:56 33J LOCKED OUT 4200 COLDWATER RD
14F083174 17:22:19 51 THEFT 1800 MAIN ST W
14F083181 17:25:25 40A AUDIBLE 5000 PLAZA DR
14F083176 17:25:31 33,34 4100 HESSEN CASSEL RD & MCKINNIE A
14F083192 17:26:02 16,97 300 DEWALD ST W
14F083179 17:30:39 911 HANG UP 4300 COLDWATER RD & COLISEUM BLVD
14F083180 17:32:11 15,85 ASST AT O 1000 COTTAGE AVE
14F083215 17:32:40 16,97 1200 CLAYTON AVE
14F083183 17:33:14 43 DISTURBANCE 2600 FAIRFIELD VIEW PL & PONTIAC S
14F083184 17:33:26 63 CONTACT 100 PETTIT AVE E
14F083182 17:33:30 40A AUDIBLE 200 MURRAY ST
14F083185 17:38:59 11C CAGE CAR 4200 COLDWATER RD
14F083187 17:41:04 66 72 HOUR 500 STATE BLVD E
14F083203 17:42:09 44FW 3500 COLISEUM BLVD W
14F083186 17:44:18 103 UNWANTED 4600 COLDWATER RD
14F083197 17:45:25 103 UNWANTED 700 NORTHCREST SHOPPING CTR
14F083188 17:46:31 26 PI ACCIDENT 5700 ILLINOIS RD & AVENUE OF AUTOS
14F083189 17:47:26 20 PROBLEM UNK 3100 WELLS ST
14F083190 17:48:37 40A AUDIBLE 1800 MARY ST
14F083191 17:50:33 51,ATTEMPTED 1100 STATE BLVD E & CRESCENT AVE
14F083193 17:53:42 80 CIVIL INVEST 2700 WITCHWOOD DR
14F083194 17:54:23 129 1000 FAYETTE DR
14F083195 17:54:34 129 1000 FAYETTE DR
14F083218 17:54:47 1 MEET 00 MAIN ST E
14F083196 17:57:59 25HS HIT SKIP 5700 CALHOUN ST S & PAULDING RD E
14F083204 18:00:19 22I JUV INVEST 500 PROSPECT AVE
14F083202 18:01:40 47 REMOVE ITEMS 400 KINNAIRD AVE
14F083198 18:04:44 30 TRAFFIC STOP 100 RUDISILL BLVD W & HARRISON ST
14F083199 18:07:49 26 PI ACCIDENT 2000 NELSON ST & TAYLOR ST
14F083200 18:10:23 40I INTRUSION 3400 SHERMAN BLVD
14F083201 18:17:17 48 SUSPICIOUS 1100 RUDISILL BLVD E
14F083205 18:23:59 911 HANG UP 6000 STELLHORN RD
14F083206 18:24:21 911 HANG UP 6800 LIMA RD
14F083217 18:28:52 16,97 6100 STELLHORN RD
14F083207 18:29:34 33,34 4900 STATE BLVD E
14F083221 18:29:53 102 THREATS 2900 MAPLE GROVE AVE E
14F083208 18:31:40 25 PD ACCIDENT 4200 COLDWATER RD
14F083209 18:32:00 25HS HIT SKIP 7600 GLENOAK PKWY
14F083210 18:32:50 25 PD ACCIDENT 6100 CALHOUN ST S & CROWN LN E
14F083212 18:34:48 911 HANG UP 4100 PLAZA DR
14F083211 18:35:24 30 TRAFFIC STOP 2600 COVINGTON COMMONS DR & COVING
14F083213 18:36:54 25 PD ACCIDENT 4900 LAFAYETTE ST S & PETTIT AVE E
14F083214 18:39:19 26 PI ACCIDENT 4200 CLINTON ST S & MCKINNIE AVE
14F083219 18:41:43 37 PARKING VIOL 4600 INNSBRUCK DR
14F083216 18:43:25 911 HANG UP 600 TILLWATER LN
14F083220 18:47:41 96 BATTERY 100 BERRY ST E & CALHOUN ST S
14F083233 18:48:00 99 NARCOTICS 2900 GOSHEN RD
14F083222 18:53:41 46 DOMESTIC 2000 WOODHAVEN DR
14F083223 18:56:18 911 HANG UP 1900 GRISWOLD DR
14F083226 18:56:59 44FW 4200 CALHOUN ST S & MCKINNIE AVE
14F083224 18:58:37 40A AUDIBLE 2300 CASS ST
14F083225 19:01:49 40A AUDIBLE 2000 WASHINGTON BLVD E
14F083227 19:09:37 72 FAIL TO PAY 7000 BLUFFTON RD
14F083228 19:11:12 46,96 2400 FOX AVE
14F083229 19:13:06 911 HANG UP 700 FLORENCE AVE
14F083230 19:13:41 101 OPEN DOOR 3600 TRACE WAY
14F083231 19:15:06 66 72 HOUR 7900 JEFFERSON BLVD W
14F083232 19:18:10 911 HANG UP 3700 ST JOE CENTER RD
14F083239 19:18:15 51 THEFT 1700 HENSCH ST
14F083234 19:22:34 911 HANG UP 1500 HUFFMAN BLVD
14F083235 19:22:48 40A AUDIBLE 5000 SPEEDWAY DR
14F083236 19:23:08 47 REMOVE ITEMS 7300 SPRINGHILL DR
14F083237 19:31:29 37 PARKING VIOL 3900 DUPONT RD E
14F083238 19:31:41 22I JUV INVEST 1100 SHERMAN BLVD & HIGH ST
14F083240 19:35:41 40A AUDIBLE 2800 SPRUNGER RD W
14F083241 19:35:58 911 HANG UP 2900 SIMCOE DR
14F083242 19:39:00 37 PARKING VIOL 1300 STATE BLVD W
14F083243 19:40:18 911 HANG UP 2700 CLINTON ST S
14F083244 19:45:56 46 DOMESTIC 3800 CALHOUN ST S & RUDISILL BLVD
14F083246 19:48:00 911 HANG UP 2500 TERRACE RD
14F083245 19:49:11 40A AUDIBLE 700 ROLLINGWOOD LN
14F083247 19:52:17 30 TRAFFIC STOP 5400 LIMA RD & I 69 NB
14F083248 19:52:23 48,35 700 BUCHANAN ST
14F083250 19:59:17 47 REMOVE ITEMS 2400 FOX AVE
14F083249 19:59:26 96JO 3600 TRACE WAY
14F083251 20:02:41 46 DOMESTIC 2300 CLINTON ST N
14F083254 20:03:22 66 MENTALLY ILL 600 CURDES AVE
14F083268 20:03:30 1 MEET 3700 CALHOUN ST S
14F083252 20:04:39 16V PICKUP VID 00 MAIN ST E
14F083253 20:05:38 30 TRAFFIC STOP 1100 SHERMAN BLVD & HIGH ST
14F083265 20:05:59 51 THEFT 1400 COLUMBIA AVE
14F083259 20:06:21 99 NARCOTICS 1400 LAKE AVE
14F083255 20:06:47 911 HANG UP 4000 OAKLEAF DR
14F083256 20:07:15 911 HANG UP 3500 BARR ST S
14F083262 20:08:05 911 HANG UP 800 MILTON ST
14F083258 20:09:11 15 ASSIST 4500 ANTHONY BLVD S & COLONIAL AVE
14F083257 20:09:14 65T SUICIDE THR 4500 REED ST
14F083260 20:13:19 911 HANG UP 5500 LOIS LN
14F083261 20:13:50 48 SUSPICIOUS 8900 CROSIER LN
14F083264 20:15:53 911 HANG UP 1600 WOODSIDE AVE
14F083263 20:18:33 911 HANG UP 2700 BANKS AVE
14F083266 20:21:05 23,113 3200 BROADWAY & PACKARD AVE W
14F083267 20:22:01 46 DOMESTIC 6300 NINA DR
14F083269 20:26:31 911 HANG UP 1500 SPY RUN AVE
14F083277 20:27:38 102 THREATS 5300 GOSHEN RD
14F083272 20:28:00 44FW 600 HUFFMAN ST
14F083270 20:28:13 46 DOMESTIC 5600 SMITH ST
14F083276 20:30:24 48 SUSPICIOUS 2300 FLORIDA DR
14F083271 20:31:46 48 SUSPICIOUS 600 LEWIS ST E & HANNA ST S
14F083273 20:32:48 129 7100 WOODCROFT LN
14F083274 20:33:03 129 7100 WOODCROFT LN
14F083275 20:33:42 44FW 600 FLORENCE AVE
14F083278 20:39:35 30 TRAFFIC STOP 700 BROADWAY & BERRY ST W
14F083279 20:39:53 43 DISTURBANCE 2700 REPTON DR
14F083280 20:44:14 23,35 VAND VEH 800 PACKARD AVE W
14F083281 20:45:38 129 3700 SUMMERSWORTH RUN
14F083282 20:45:59 129 900 ABBEY PLACE BLVD
14F083283 20:47:29 129 2700 WHITEGATE DR
14F083284 20:50:04 911 HANG UP 1000 COTTAGE AVE
14F083290 20:51:05 44FW 600 FLORENCE AVE
14F083285 20:53:07 43 DISTURBANCE 5100 OLD MAYSVILLE RD
14F083293 20:53:53 22N CHILD NEGLE 400 BRANNING AVE W
14F083287 20:54:50 48 SUSPICIOUS 1100 ELMWOOD AVE & TECUMSEH ST
14F083335 20:55:37 16,97 2500 SOUTHWAYNE AVE
14F083286 20:55:57 911 HANG UP 800 POPLAR ST
14F083288 20:58:14 103 UNWANTED 4200 COLDWATER RD
14F083289 21:00:10 911 HANG UP 6000 BUNT DR
14F083291 21:00:25 11C CAGE CAR 4200 COLDWATER RD
14F083292 21:03:15 1 MEET 2100 EDEN ST
14F083294 21:03:42 911 HANG UP 1800 LIMA LN
14F083296 21:04:05 102 THREATS 2200 DUNKELBERG RD
14F083316 21:04:42 102 THREATS 3100 WELLS ST
14F083295 21:05:15 80 CIVIL INVEST 2900 THOMPSON AVE
14F083297 21:08:34 43 DISTURBANCE 4100 HESSEN CASSEL RD
14F083298 21:09:32 101 OPEN DOOR 200 BERRY ST W & MAIDEN LN
14F083304 21:09:51 911 HANG UP 1600 WASHINGTON CENTER RD W
14F083299 21:10:09 46 DOMESTIC 3100 WELLS ST MHP ENTR
14F083303 21:13:02 25 PD ACCIDENT 1900 BROADWAY & TAYLOR ST
14F083306 21:13:17 96JO 4700 NORTHCREST DR
14F083300 21:13:44 23,35 VAND VEH 2800 INDIANA AVE
14F083301 21:13:53 51 THEFT 3200 STATE BLVD E
14F083302 21:14:04 30 TRAFFIC STOP 1800 ANTHONY BLVD S & SIMONS ST
14F083305 21:14:31 40A AUDIBLE 1600 WABASH AVE
14F083307 21:22:09 43 DISTURBANCE 3400 WAYNE TRACE
14F083308 21:24:40 103 UNWANTED 1900 RANDALLIA DR
14F083353 21:25:40 44FW 2600 ABBEY DR
14F083309 21:25:52 43 DISTURBANCE 6300 NINA DR
14F083313 21:27:22 44FW 6700 JEFFERSON BLVD W
14F083320 21:27:44 911 HANG UP 8000 DECATUR RD & SERENITY DR
14F083310 21:27:53 46 DOMESTIC 700 UNION ST
14F083356 21:28:45 44FW 2000 OAKLAND ST
14F083339 21:30:05 22I JUV INVEST 500 TILLWATER LN
14F083311 21:31:53 16,97 3300 PAULDING RD E
14F083312 21:32:02 16,97 3300 PAULDING RD E
14F083314 21:32:28 113 SHOTS FIRED 1700 LINDENWOOD AVE
14F083315 21:34:05 62 PARTY ARMED 3300 LAFAYETTE ST S & WIEBKE ST
14F083317 21:41:25 16V PICKUP VID 00 MAIN ST E
14F083332 21:42:26 46 DOMESTIC 7400 NATURE TRAIL DR
14F083318 21:43:39 51 THEFT 3300 BARR ST S
14F083319 21:44:35 48,36 5700 HOMESTEAD RD & LIBERTY MILLS
14F083321 21:45:37 44FW 2500 LYNN AVE
14F083362 21:46:44 44LM 1700 NORTHHIGHLANDS BLVD
14F083322 21:51:09 70 FIRE 2700 SHERBORNE BLVD
14F083323 21:51:11 65T SUICIDE THR 1500 CASS ST
14F083324 21:54:28 48 SUSPICIOUS 200 PETTIT AVE E
14F083325 21:56:03 911 HANG UP 3400 ALEXANDER ST
14F083326 21:57:47 43 DISTURBANCE 10000 ACORN LN
14F083327 21:59:32 40A AUDIBLE 2700 DWENGER AVE
14F083328 21:59:59 51JO 6600 BLUFFTON RD
14F083334 22:00:33 44FW 6100 TANGLE CREEK CT
14F083329 22:00:40 40A AUDIBLE 3100 STATE BLVD E
14F083331 22:01:55 48 SUSPICIOUS 800 GOSHEN AVE
14F083330 22:04:18 33,34 1900 HARRISON ST S & WILLIAMS ST W
14F083333 22:05:14 911 HANG UP 7600 CANTERCHASE CT
14F083336 22:06:54 11C CAGE CAR 00 MAIN ST E
14F083340 22:07:31 911 HANG UP 2700 DELLVIEW DR
14F083337 22:07:51 40A AUDIBLE 4600 COLDWATER RD
14F083338 22:09:23 113 SHOTS FIRED 4800 BOWSER AVE & PETTIT AVE E
14F083342 22:10:30 911 HANG UP 3400 MCKINNIE AVE
14F083341 22:11:24 43 DISTURBANCE 3100 WELLS ST
14F083343 22:11:47 911 HANG UP 3100 ABBOTT ST
14F083345 22:11:49 102 THREATS 1200 MICHIGAN AVE
14F083344 22:12:48 44LM 2000 PAULINE ST
14F083346 22:13:53 46,96 4900 WAYNE PARK DR
14F083347 22:15:22 48,36 5800 TURTLE CREEK DR
14F083348 22:17:04 46 DOMESTIC 2700 POINSETTE DR
14F083349 22:20:19 911 HANG UP 4100 HARRIS MEADOW PL
14F083350 22:26:32 30 TRAFFIC STOP 2900 SMITH ST & COLERICK ST
14F083351 22:26:53 48,36 7800 JEFFERSON BLVD W
14F083354 22:28:37 44FW 3200 PORTAGE BLVD
14F083352 22:28:53 129 2100 SHADY BROOK DR
14F083355 22:29:47 44FW 1100 BERRY ST W
14F083368 22:34:16 46 DOMESTIC 500 TABER ST E
14F083357 22:37:35 43 DISTURBANCE 800 FLORENCE AVE & SHERMAN BLVD
14F083358 22:38:05 40A AUDIBLE 1000 THOMAS RD S
14F083359 22:39:06 30 TRAFFIC STOP 2200 OLIVER ST & CREIGHTON AVE E
14F083364 22:39:09 911 HANG UP 2900 CHESTNUT ST
14F083360 22:39:51 44FW 2200 DUNKELBERG RD
14F083361 22:41:07 48,36 2800 NORTHGATE BLVD
14F083375 22:41:37 44FW 2900 GOSHEN RD
14F083365 22:42:05 28 DUI 1100 SCOTT RD S & ILLINOIS RD
14F083366 22:42:37 911 HANG UP 2900 WINTER ST
14F083363 22:43:26 30 TRAFFIC STOP 2700 CALHOUN ST S & LEITH ST E
14F083367 22:46:38 30 TRAFFIC STOP 11600 US 30 E & I 469 19 NB ON RAM
14F083369 22:49:30 44FW 3500 ACADEMIC PL
14F083370 22:52:24 30 TRAFFIC STOP 500 RUDISILL BLVD E & WARSAW ST
14F083374 22:53:42 911 HANG UP 1100 DEARBORN ST
14F083372 22:55:22 50IP BURG I/P 1200 FLETCHER AVE & ALLIGER ST
14F083373 22:56:41 30 TRAFFIC STOP 7800 ABOITE CENTER RD & DICKE RD
14F083376 22:58:21 43 DISTURBANCE 1600 LAKE AVE & GARFIELD ST
14F083377 23:01:40 43 DISTURBANCE 6300 LIBERTY DR & OLD TRAIL RD
14F083382 23:01:42 40A AUDIBLE 3300 RIVER FOREST DR
14F083378 23:02:26 55 FIGHT 2600 FAIRFIELD AVE
14F083380 23:02:46 911 HANG UP 2700 GREENVIEW AVE
14F083379 23:05:31 30 TRAFFIC STOP 1400 DREXEL AVE & REED ST
14F083383 23:06:35 11C CAGE CAR 200 PETTIT AVE E
14F083384 23:10:19 15 ASSIST 1200 GETZ RD & ILLINOIS RD
14F083385 23:10:59 44LM 5200 BUELL DR
14F083387 23:13:32 44FW 4900 BUELL DR & LENOX AVE W
14F083386 23:14:21 30 TRAFFIC STOP 600 STATE BLVD E & PARNELL AVE
14F083388 23:15:39 30 TRAFFIC STOP 3000 CLINTON ST N
14F083390 23:17:29 44LP 800 MAY PL
14F083389 23:17:49 30 TRAFFIC STOP 2600 WINTER ST & PONTIAC ST E
14F083391 23:19:01 44FW 2700 PRAIRIE GROVE DR
14F083393 23:19:06 48 SUSPICIOUS 31400 I 69 NB
14F083395 23:20:12 46 DOMESTIC 5000 CHARLOTTE AVE
14F083392 23:22:13 108 FOLLOWUP 200 FOURTH ST E
14F083412 23:23:32 42 INTOX PERSON 900 FOREST AVE
14F083396 23:26:23 30 TRAFFIC STOP 1500 PETTIT AVE E & WINTER ST
14F083397 23:26:59 30 TRAFFIC STOP 700 LEY RD & MERCHANDISE DR
14F083398 23:28:57 30 TRAFFIC STOP 4800 ANTHONY BLVD S & PETTIT AVE E
14F083402 23:29:54 25 PD ACCIDENT 4000 LAKE AVE & COLISEUM BLVD N
14F083401 23:30:20 40 ALARM 500 LEY RD
14F083400 23:30:24 26HS PI HITSKIP 3000 GOSHEN RD
14F083399 23:30:57 30 TRAFFIC STOP 5000 ST JOE RD & CANTERBURY BLVD
14F083403 23:32:42 40A AUDIBLE 4600 COLDWATER RD
14F083404 23:36:03 30 TRAFFIC STOP 7100 ILLINOIS RD & HADLEY RD S
14F083405 23:36:31 30 TRAFFIC STOP 2200 LINDENWOOD AVE & STATE BLVD W
14F083406 23:39:11 30 TRAFFIC STOP 31100 I 69 SB
14F083407 23:39:40 30 TRAFFIC STOP 4000 ILLINOIS RD
14F083409 23:39:56 103 UNWANTED 2700 JEFFERSON BLVD W
14F083408 23:40:57 30 TRAFFIC STOP 6200 JEFFERSON BLVD W
14F083410 23:42:03 113 SHOTS FIRED 1900 HOAGLAND AVE
14F083411 23:42:33 48 SUSPICIOUS 2900 LYNN AVE
14F083425 23:43:03 44LM 4900 ST JOE CENTER RD
14F083417 23:43:34 22I JUV INVEST 6300 WAKOPA CT
14F083414 23:45:19 911 HANG UP 3200 COLISEUM BLVD W
14F083413 23:48:09 30 TRAFFIC STOP 4600 LIMA RD
14F083415 23:49:26 44LM 500 MAPLE GROVE AVE E
14F083416 23:51:24 30 TRAFFIC STOP 1400 CLINTON ST N & FOURTH ST E
14F083422 23:51:54 48,36 5600 RIVER RUN TRL
14F083418 23:52:28 33,34 5700 CALHOUN ST S & PAULDING RD E
14F083419 23:53:19 14S SERVING WAR 3100 HARRISON ST S
14F083420 23:53:48 30 TRAFFIC STOP 7100 ILLINOIS RD & HADLEY RD S
14F083421 23:54:21 30 TRAFFIC STOP 200 COLISEUM BLVD W
14F083424 23:56:30 48 SUSPICIOUS 3800 NEWPORT AVE
14F083423 23:57:33 30 TRAFFIC STOP 1600 ILLINOIS RD S & JEFFERSON BLV
Amber Alert

All-America City